This is the latest recevied weather packets stored in our database for station/object KB3KAV. If no packets are shown the sender has not sent any weather packets the latest 10 day(s).
| Time | Temp. | Humidity | Pressure | Rain* | Wind** | Luminosity | Snow |
|---|---|---|---|---|---|---|---|
| 1777879484 | 0° C | 92% | 1042.1 hPa | 0 mm | - | 0 W/m² | - |
| 1777878883 | 0° C | 92% | 1042.2 hPa | 0 mm | - | 0 W/m² | - |
| 1777878283 | 0.56° C | 91% | 1042.2 hPa | 0 mm | - | 0 W/m² | - |
| 1777877681 | 0.56° C | 91% | 1042.1 hPa | 0 mm | - | 0 W/m² | - |
| 1777877076 | 0.56° C | 91% | 1041.9 hPa | 0 mm | - | 0 W/m² | - |
| 1777876476 | 0.56° C | 91% | 1042.1 hPa | 0 mm | - | 0 W/m² | - |
| 1777875875 | 0.56° C | 90% | 1042.3 hPa | 0 mm | - | 0 W/m² | - |
| 1777875274 | 1.11° C | 90% | 1042.3 hPa | 0 mm | - | 0 W/m² | - |
| 1777874673 | 1.11° C | 90% | 1042.1 hPa | 0 mm | - | 0 W/m² | - |
| 1777874067 | 1.11° C | 89% | 1042.1 hPa | 0 mm | - | 0 W/m² | - |
| 1777873467 | 1.11° C | 89% | 1042 hPa | 0 mm | - | 0 W/m² | - |
| 1777872866 | 1.11° C | 89% | 1042.1 hPa | 0 mm | - | 0 W/m² | - |
| 1777872262 | 1.67° C | 88% | 1042 hPa | 0 mm | - | 0 W/m² | - |
| 1777871661 | 1.67° C | 88% | 1042 hPa | 0 mm | - | 0 W/m² | - |
| 1777871061 | 1.67° C | 87% | 1042.1 hPa | 0 mm | - | 0 W/m² | - |
| 1777870459 | 1.67° C | 87% | 1042 hPa | 0 mm | - | 0 W/m² | - |
| 1777869859 | 2.22° C | 87% | 1042.1 hPa | 0 mm | - | 0 W/m² | - |
| 1777869259 | 2.22° C | 86% | 1042.1 hPa | 0 mm | - | 0 W/m² | - |
| 1777868659 | 2.22° C | 86% | 1041.9 hPa | 0 mm | - | 0 W/m² | - |
| 1777868058 | 2.22° C | 85% | 1042 hPa | 0 mm | - | 0 W/m² | - |
| 1777867452 | 2.78° C | 84% | 1041.8 hPa | 0 mm | - | 0 W/m² | - |
| 1777866851 | 2.78° C | 83% | 1042 hPa | 0 mm | - | 0 W/m² | - |
| 1777866251 | 2.78° C | 83% | 1041.9 hPa | 0 mm | - | 0 W/m² | - |
| 1777865646 | 3.33° C | 82% | 1041.8 hPa | 0 mm | - | 0 W/m² | - |
| 1777865045 | 3.33° C | 81% | 1041.9 hPa | 0 mm | - | 0 W/m² | - |
* Rain latest hour (hover to see other rain measurements)
** Current wind speed in m/s (hover to see current wind gust speed)